When you browse on this site, cookies collect data to enhance your experience and personalize the content and advertising you see.
Visit our Privacy Policy to learn more. By continuing to use the site, you agree to this use of cookies and data.
  • In Slovakia
  • List of Countries
  • For 7 days
  • Water Temperature
  • Satellite Maps
  • Weather Map
  • Weather Widgets
  • user-avatar
    Login

    Hourly Weather Shadni

    Today, 27 June, Thursday

    Time Temperature Precipitation Wind Pressure Humidity
    00:00 +18°C° 0.3 mm 1 mps 652 mmHg 77%
    01:00 +17°C° 0.2 mm 2 mps 652 mmHg 77%
    02:00 +16°C° 0.2 mm 2 mps 652 mmHg 77%
    03:00 +16°C° 0.2 mm 2 mps 652 mmHg 76%
    04:00 +18°C° 0 mm 1 mps 652 mmHg 74%
    05:00 +19°C° 0 mm 1 mps 652 mmHg 72%
    06:00 +18°C° 0 mm 0 mps 653 mmHg 70%
    07:00 +21°C° 0.2 mm 1 mps 653 mmHg 68%
    08:00 +21°C° 0.2 mm 2 mps 653 mmHg 66%
    09:00 +23°C° 0.2 mm 2 mps 653 mmHg 65%
    10:00 +23°C° 1 mm 2 mps 653 mmHg 66%
    11:00 +23°C° 1 mm 2 mps 653 mmHg 67%
    12:00 +22°C° 1 mm 3 mps 652 mmHg 68%
    13:00 +23°C° 0.6 mm 2 mps 652 mmHg 66%
    14:00 +23°C° 0.6 mm 2 mps 652 mmHg 64%
    15:00 +24°C° 0.6 mm 2 mps 652 mmHg 62%
    16:00 +23°C° 0.3 mm 2 mps 651 mmHg 65%
    17:00 +21°C° 0.3 mm 2 mps 651 mmHg 69%
    18:00 +22°C° 0.3 mm 1 mps 650 mmHg 73%
    19:00 +20°C° 0.1 mm 1 mps 650 mmHg 75%
    20:00 +19°C° 0.1 mm 1 mps 650 mmHg 77%
    21:00 +18°C° 0.1 mm 1 mps 649 mmHg 78%
    22:00 +16°C° 0 mm 1 mps 649 mmHg 76%
    23:00 +16°C° 0 mm 2 mps 649 mmHg 74%

    Tomorrow, 28 June, Friday

    Time Temperature Precipitation Wind Pressure Humidity
    00:00 +16°C° 0 mm 2 mps 648 mmHg 72%
    01:00 +16°C° 0 mm 2 mps 648 mmHg 71%
    02:00 +16°C° 0 mm 2 mps 648 mmHg 70%
    03:00 +16°C° 0 mm 2 mps 647 mmHg 69%
    04:00 +17°C° 0 mm 2 mps 648 mmHg 68%
    05:00 +18°C° 0 mm 1 mps 648 mmHg 68%
    06:00 +19°C° 0 mm 1 mps 648 mmHg 67%
    07:00 +20°C° 0 mm 2 mps 648 mmHg 63%
    08:00 +23°C° 0 mm 2 mps 648 mmHg 58%
    09:00 +24°C° 0 mm 2 mps 649 mmHg 54%
    10:00 +25°C° 0.1 mm 2 mps 648 mmHg 53%
    11:00 +25°C° 0.1 mm 3 mps 648 mmHg 53%
    12:00 +26°C° 0.1 mm 3 mps 648 mmHg 53%
    13:00 +26°C° 0.3 mm 3 mps 648 mmHg 54%
    14:00 +25°C° 0.3 mm 3 mps 647 mmHg 55%
    15:00 +25°C° 0.3 mm 3 mps 647 mmHg 56%
    16:00 +24°C° 0.2 mm 2 mps 646 mmHg 60%
    17:00 +23°C° 0.2 mm 2 mps 646 mmHg 63%
    18:00 +23°C° 0.2 mm 1 mps 645 mmHg 67%
    19:00 +22°C° 0 mm 1 mps 645 mmHg 69%
    20:00 +20°C° 0 mm 1 mps 645 mmHg 71%
    21:00 +19°C° 0 mm 1 mps 645 mmHg 73%
    22:00 +19°C° 0.3 mm 1 mps 645 mmHg 73%
    23:00 +18°C° 0.3 mm 2 mps 645 mmHg 73%

    Day after tomorrow, 29 June, Saturday

    Time Temperature Precipitation Wind Pressure Humidity
    00:00 +18°C° 0.3 mm 2 mps 645 mmHg 73%
    01:00 +18°C° 0.4 mm 1 mps 644 mmHg 76%
    02:00 +18°C° 0.4 mm 1 mps 644 mmHg 79%
    03:00 +16°C° 0.4 mm 1 mps 644 mmHg 82%
    04:00 +18°C° 0.2 mm 1 mps 645 mmHg 82%
    05:00 +18°C° 0.2 mm 1 mps 645 mmHg 82%
    06:00 +17°C° 0.2 mm 0 mps 645 mmHg 83%
    07:00 +20°C° 0.1 mm 1 mps 645 mmHg 81%
    08:00 +20°C° 0.1 mm 2 mps 646 mmHg 78%
    09:00 +21°C° 0.1 mm 2 mps 646 mmHg 76%
    10:00 +20°C° 0.7 mm 3 mps 646 mmHg 78%
    11:00 +20°C° 0.7 mm 3 mps 646 mmHg 79%
    12:00 +20°C° 0.7 mm 3 mps 646 mmHg 81%
    13:00 +19°C° 0.9 mm 2 mps 645 mmHg 84%
    14:00 +19°C° 0.9 mm 2 mps 645 mmHg 88%
    15:00 +18°C° 0.9 mm 2 mps 645 mmHg 91%
    16:00 +18°C° 1.6 mm 2 mps 644 mmHg 92%
    17:00 +17°C° 1.6 mm 2 mps 644 mmHg 93%
    18:00 +17°C° 1.6 mm 2 mps 644 mmHg 95%
    19:00 +18°C° 0.6 mm 1 mps 645 mmHg 95%
    20:00 +16°C° 0.6 mm 1 mps 645 mmHg 95%
    21:00 +16°C° 0.6 mm 1 mps 646 mmHg 96%
    22:00 +15°C° 2.8 mm 1 mps 645 mmHg 96%
    23:00 +15°C° 2.8 mm 2 mps 645 mmHg 96%

    30 June, Sunday

    Time Temperature Precipitation Wind Pressure Humidity
    00:00 +15°C° 2.8 mm 2 mps 645 mmHg 96%
    01:00 +14°C° 2.1 mm 2 mps 645 mmHg 95%
    02:00 +14°C° 2.1 mm 2 mps 645 mmHg 95%
    03:00 +13°C° 2.1 mm 2 mps 645 mmHg 95%
    04:00 +13°C° 0.2 mm 2 mps 646 mmHg 94%
    05:00 +13°C° 0.2 mm 2 mps 646 mmHg 93%
    06:00 +13°C° 0.2 mm 2 mps 646 mmHg 92%
    07:00 +13°C° 0.8 mm 1 mps 646 mmHg 90%
    08:00 +13°C° 0.8 mm 1 mps 646 mmHg 88%
    09:00 +13°C° 0.8 mm 1 mps 646 mmHg 87%
    10:00 +14°C° 0 mm 1 mps 647 mmHg 81%
    11:00 +15°C° 0 mm 2 mps 647 mmHg 75%
    12:00 +16°C° 0 mm 2 mps 648 mmHg 69%
    13:00 +16°C° 0.1 mm 2 mps 647 mmHg 72%
    14:00 +15°C° 0.1 mm 2 mps 647 mmHg 74%
    15:00 +15°C° 0.1 mm 2 mps 647 mmHg 77%
    16:00 +15°C° 0.4 mm 2 mps 647 mmHg 79%
    17:00 +14°C° 0.4 mm 2 mps 647 mmHg 82%
    18:00 +13°C° 0.4 mm 1 mps 647 mmHg 85%
    19:00 +13°C° 2.2 mm 1 mps 647 mmHg 88%
    20:00 +12°C° 2.2 mm 1 mps 647 mmHg 90%
    21:00 +12°C° 2.2 mm 1 mps 647 mmHg 93%
    22:00 +11°C° 2.5 mm 1 mps 647 mmHg 94%
    23:00 +10°C° 2.5 mm 2 mps 647 mmHg 95%

    1 July, Monday

    Time Temperature Precipitation Wind Pressure Humidity
    00:00 +10°C° 2.5 mm 2 mps 648 mmHg 96%
    01:00 +9°C° 2.9 mm 2 mps 647 mmHg 96%
    02:00 +9°C° 2.9 mm 2 mps 647 mmHg 96%
    03:00 +8°C° 2.9 mm 3 mps 647 mmHg 96%
    04:00 +8°C° 2.3 mm 2 mps 647 mmHg 95%
    05:00 +8°C° 2.3 mm 2 mps 647 mmHg 94%
    06:00 +7°C° 2.3 mm 2 mps 648 mmHg 93%
    07:00 +9°C° 1.6 mm 1 mps 648 mmHg 92%
    08:00 +9°C° 1.6 mm 1 mps 648 mmHg 91%
    09:00 +9°C° 1.6 mm 1 mps 648 mmHg 90%
    10:00 +10°C° 1.1 mm 1 mps 648 mmHg 89%
    11:00 +10°C° 1.1 mm 1 mps 648 mmHg 87%
    12:00 +10°C° 1.1 mm 1 mps 648 mmHg 86%
    13:00 +10°C° 0.5 mm 1 mps 648 mmHg 84%
    14:00 +11°C° 0.5 mm 1 mps 648 mmHg 82%
    15:00 +11°C° 0.5 mm 1 mps 648 mmHg 80%
    16:00 +11°C° 0.1 mm 1 mps 648 mmHg 80%
    17:00 +11°C° 0.1 mm 1 mps 649 mmHg 81%
    18:00 +11°C° 0.1 mm 1 mps 649 mmHg 81%
    19:00 +11°C° 0.3 mm 1 mps 649 mmHg 83%
    20:00 +10°C° 0.3 mm 1 mps 649 mmHg 84%
    21:00 +9°C° 0.3 mm 2 mps 649 mmHg 86%
    22:00 +9°C° 0.3 mm 2 mps 649 mmHg 86%
    23:00 +9°C° 0.3 mm 2 mps 649 mmHg 86%

    2 July, Tuesday

    Time Temperature Precipitation Wind Pressure Humidity
    00:00 +8°C° 0.3 mm 2 mps 649 mmHg 86%
    01:00 +8°C° 0.2 mm 2 mps 649 mmHg 84%
    02:00 +8°C° 0.2 mm 2 mps 649 mmHg 82%
    03:00 +8°C° 0.2 mm 2 mps 649 mmHg 81%
    04:00 +8°C° 0 mm 2 mps 650 mmHg 78%
    05:00 +9°C° 0 mm 2 mps 650 mmHg 76%
    06:00 +10°C° 0 mm 2 mps 651 mmHg 74%
    07:00 +12°C° 0 mm 2 mps 651 mmHg 66%
    08:00 +14°C° 0 mm 2 mps 652 mmHg 59%
    09:00 +16°C° 0 mm 1 mps 652 mmHg 51%
    10:00 +17°C° 0 mm 2 mps 652 mmHg 51%
    11:00 +18°C° 0 mm 2 mps 652 mmHg 51%
    12:00 +19°C° 0 mm 2 mps 653 mmHg 51%
    13:00 +19°C° 0 mm 3 mps 652 mmHg 53%
    14:00 +19°C° 0 mm 3 mps 652 mmHg 55%
    15:00 +19°C° 0 mm 4 mps 652 mmHg 56%
    16:00 +18°C° 0 mm 3 mps 652 mmHg 61%
    17:00 +18°C° 0 mm 2 mps 652 mmHg 65%
    18:00 +17°C° 0 mm 2 mps 652 mmHg 69%
    19:00 +16°C° 0 mm 2 mps 651 mmHg 71%
    20:00 +14°C° 0 mm 2 mps 651 mmHg 73%
    21:00 +13°C° 0 mm 2 mps 651 mmHg 75%
    22:00 +13°C° 0 mm 2 mps 651 mmHg 72%
    23:00 +13°C° 0 mm 2 mps 650 mmHg 69%
    Show more